Tracking 29892 objects as of 21-Nov-2024
HD Live streaming from Space Station
objects crossing your sky now

ONEWEB-0088

Track ONEWEB-0088 now!
10-day predictions
ONEWEB-0088 is classified as:


NORAD ID: 45457
Int'l Code: 2020-020AK
Perigee: 1,223.6 km
Apogee: 1,226.1 km
Inclination: 87.9 °
Period: 109.8 minutes
Semi major axis: 7595 km
RCS: Unknown
Launch date: March 21, 2020
Source: United Kingdom (UK)
Launch site: TYURATAM MISSILE AND SPACE COMPLEX (TTMTR)
Your satellite tracking list
Your tracking list is empty




NASA's NSSDC Master Catalog

Two Line Element Set (TLE):
1 45457U 20020AK  24325.91210572  .00000109  00000-0  27071-3 0  9992
2 45457  87.8876 135.2312 0001647  92.0245 268.1072 13.11419887227402
Source of the keplerian elements: AFSPC